Time,TemperatureF,DewpointF,PressureIn,WindDirection,WindDirectionDegrees,WindSpeedMPH,WindSpeedGustMPH,Humidity,HourlyPrecipIn,Conditions,Clouds,dailyrainin,SoftwareType,DateUTC
2013-04-08 00:00:00,59.0,48.8,29.94,SSW,204,0.0,0.0,69,0.00,,,0.00,WeatherCatV1.00B22,2013-04-08 04:00:00,
2013-04-08 00:01:00,59.0,48.5,29.94,SSW,204,0.0,0.0,68,0.00,,,0.00,WeatherCatV1.00B22,2013-04-08 04:01:00,
2013-04-08 00:06:00,59.0,49.2,29.95,SSW,204,0.0,0.0,70,0.00,,,0.00,WeatherCatV1.00B22,2013-04-08 04:06:00,
2013-04-08 00:11:00,59.0,49.2,29.95,SSW,204,0.0,0.0,70,0.00,,,0.00,WeatherCatV1.00B22,2013-04-08 04:11:00,
2013-04-08 00:16:00,58.9,48.4,29.95,SSW,204,0.0,0.0,68,0.00,,,0.00,WeatherCatV1.00B22,2013-04-08 04:16:00,
2013-04-08 00:21:00,58.8,48.7,29.95,SSW,204,0.0,0.0,69,0.00,,,0.00,WeatherCatV1.00B22,2013-04-08 04:21:00,
2013-04-08 00:26:00,58.7,48.6,29.95,SSW,204,0.0,0.0,69,0.00,,,0.00,WeatherCatV1.00B22,2013-04-08 04:26:00,
2013-04-08 00:31:00,58.5,48.4,29.95,SSW,204,0.0,0.0,69,0.00,,,0.00,WeatherCatV1.00B22,2013-04-08 04:31:00,
2013-04-08 00:36:00,58.4,48.7,29.95,SSW,204,0.0,0.0,70,0.00,,,0.00,WeatherCatV1.00B22,2013-04-08 04:36:00,
2013-04-08 00:41:00,58.3,48.9,29.95,SSW,204,0.0,0.0,71,0.00,,,0.00,WeatherCatV1.00B22,2013-04-08 04:41:00,
2013-04-08 00:46:00,58.1,49.1,29.95,SSW,204,0.0,0.0,72,0.00,,,0.00,WeatherCatV1.00B22,2013-04-08 04:46:00,
2013-04-08 00:51:00,57.9,49.3,29.95,SSW,204,0.0,0.0,73,0.00,,,0.00,WeatherCatV1.00B22,2013-04-08 04:51:00,
2013-04-08 00:56:00,57.7,49.1,29.95,SSW,204,0.0,0.0,73,0.00,,,0.00,WeatherCatV1.00B22,2013-04-08 04:56:00,
2013-04-08 01:01:00,57.6,49.0,29.94,SSW,204,0.0,0.0,73,0.00,,,0.00,WeatherCatV1.00B22,2013-04-08 05:01:00,
2013-04-08 01:06:00,57.4,49.2,29.94,SSW,204,0.0,0.0,74,0.00,,,0.00,WeatherCatV1.00B22,2013-04-08 05:06:00,
2013-04-08 01:11:00,57.3,49.1,29.94,SSW,204,0.0,0.0,74,0.00,,,0.00,WeatherCatV1.00B22,2013-04-08 05:11:00,
2013-04-08 01:16:00,57.1,49.2,29.95,SSW,204,0.0,0.0,75,0.00,,,0.00,WeatherCatV1.00B22,2013-04-08 05:16:00,
2013-04-08 01:21:00,57.0,49.5,29.95,SSW,204,0.0,0.0,76,0.00,,,0.00,WeatherCatV1.00B22,2013-04-08 05:21:00,
2013-04-08 01:26:00,56.8,49.3,29.95,SSW,204,0.0,0.0,76,0.00,,,0.00,WeatherCatV1.00B22,2013-04-08 05:26:00,
2013-04-08 01:31:00,56.7,48.9,29.95,SSW,204,0.0,0.0,75,0.00,,,0.00,WeatherCatV1.00B22,2013-04-08 05:31:00,
2013-04-08 01:36:00,56.6,49.1,29.95,SSW,204,0.0,0.0,76,0.00,,,0.00,WeatherCatV1.00B22,2013-04-08 05:36:00,
2013-04-08 01:41:00,56.4,48.9,29.95,SSW,204,0.0,0.0,76,0.00,,,0.00,WeatherCatV1.00B22,2013-04-08 05:41:00,
2013-04-08 01:46:00,56.3,49.2,29.94,SSW,204,0.0,0.0,77,0.00,,,0.00,WeatherCatV1.00B22,2013-04-08 05:46:00,
2013-04-08 01:51:00,56.2,49.1,29.94,SSW,204,0.0,0.0,77,0.00,,,0.00,WeatherCatV1.00B22,2013-04-08 05:51:00,
2013-04-08 01:56:00,56.1,49.0,29.94,SSW,204,0.0,0.0,77,0.00,,,0.00,WeatherCatV1.00B22,2013-04-08 05:56:00,
2013-04-08 02:01:00,56.0,49.2,29.94,SSW,204,0.0,0.0,78,0.00,,,0.00,WeatherCatV1.00B22,2013-04-08 06:01:00,
2013-04-08 02:06:00,56.0,49.2,29.94,SSW,204,0.0,0.0,78,0.00,,,0.00,WeatherCatV1.00B22,2013-04-08 06:06:00,
2013-04-08 02:11:00,56.0,49.6,29.94,SSW,204,0.0,0.0,79,0.00,,,0.00,WeatherCatV1.00B22,2013-04-08 06:11:00,
2013-04-08 02:16:00,56.0,49.6,29.94,SSW,204,0.0,0.0,79,0.00,,,0.00,WeatherCatV1.00B22,2013-04-08 06:16:00,
2013-04-08 02:21:00,56.0,49.6,29.94,SSW,204,0.0,0.0,79,0.00,,,0.00,WeatherCatV1.00B22,2013-04-08 06:21:00,
2013-04-08 02:26:00,56.0,49.6,29.94,SSW,204,0.0,0.0,79,0.00,,,0.00,WeatherCatV1.00B22,2013-04-08 06:26:00,
2013-04-08 02:31:00,56.0,50.2,29.94,SSW,204,0.0,0.0,81,0.00,,,0.00,WeatherCatV1.00B22,2013-04-08 06:31:00,
2013-04-08 02:36:00,56.0,50.2,29.93,SSW,204,0.0,0.0,81,0.00,,,0.00,WeatherCatV1.00B22,2013-04-08 06:36:00,
2013-04-08 02:41:00,56.0,50.2,29.93,SSW,204,0.0,0.0,81,0.00,,,0.00,WeatherCatV1.00B22,2013-04-08 06:41:00,
2013-04-08 02:46:00,56.0,50.2,29.93,SSW,204,0.0,0.0,81,0.00,,,0.00,WeatherCatV1.00B22,2013-04-08 06:46:00,
2013-04-08 02:51:00,56.0,50.2,29.93,SSW,204,0.0,0.0,81,0.00,,,0.00,WeatherCatV1.00B22,2013-04-08 06:51:00,
2013-04-08 02:56:00,56.1,51.0,29.93,SSW,204,0.0,0.0,83,0.00,,,0.00,WeatherCatV1.00B22,2013-04-08 06:56:00,
2013-04-08 03:01:00,56.2,50.8,29.93,SSW,204,0.0,0.0,82,0.00,,,0.00,WeatherCatV1.00B22,2013-04-08 07:01:00,
2013-04-08 03:06:00,56.2,50.8,29.93,SSW,204,0.0,0.0,82,0.00,,,0.00,WeatherCatV1.00B22,2013-04-08 07:06:00,
2013-04-08 03:11:00,56.1,50.7,29.92,SSW,204,0.0,0.0,82,0.00,,,0.00,WeatherCatV1.00B22,2013-04-08 07:11:00,
2013-04-08 03:16:00,56.2,50.8,29.92,SSW,204,0.0,0.0,82,0.00,,,0.00,WeatherCatV1.00B22,2013-04-08 07:16:00,
2013-04-08 03:21:00,56.1,50.7,29.92,SSW,204,0.0,0.0,82,0.00,,,0.00,WeatherCatV1.00B22,2013-04-08 07:21:00,
2013-04-08 03:26:00,56.1,50.7,29.92,SSW,204,0.0,0.0,82,0.00,,,0.00,WeatherCatV1.00B22,2013-04-08 07:26:00,
2013-04-08 03:31:00,56.1,50.3,29.92,SSW,204,0.0,0.0,81,0.00,,,0.00,WeatherCatV1.00B22,2013-04-08 07:31:00,
2013-04-08 03:36:00,56.1,50.3,29.92,SSW,204,0.0,0.0,81,0.00,,,0.00,WeatherCatV1.00B22,2013-04-08 07:36:00,
2013-04-08 03:41:00,56.1,50.3,29.92,SSW,204,0.0,0.0,81,0.00,,,0.00,WeatherCatV1.00B22,2013-04-08 07:41:00,
2013-04-08 03:46:00,56.1,50.3,29.92,SSW,204,0.0,0.0,81,0.00,,,0.00,WeatherCatV1.00B22,2013-04-08 07:46:00,
2013-04-08 03:51:00,56.0,50.2,29.92,SSW,204,0.0,0.0,81,0.00,,,0.00,WeatherCatV1.00B22,2013-04-08 07:51:00,
2013-04-08 03:56:00,56.0,50.2,29.93,SSW,204,0.0,0.0,81,0.00,,,0.00,WeatherCatV1.00B22,2013-04-08 07:56:00,
2013-04-08 04:01:00,56.0,50.9,29.93,SSW,204,0.0,0.0,83,0.00,,,0.00,WeatherCatV1.00B22,2013-04-08 08:01:00,
2013-04-08 04:06:00,56.0,50.9,29.92,SSW,204,0.0,0.0,83,0.00,,,0.00,WeatherCatV1.00B22,2013-04-08 08:06:00,
2013-04-08 04:11:00,56.0,50.9,29.93,SSW,204,0.0,0.0,83,0.00,,,0.00,WeatherCatV1.00B22,2013-04-08 08:11:00,
2013-04-08 04:16:00,56.0,51.2,29.93,SSW,204,0.0,0.0,84,0.00,,,0.00,WeatherCatV1.00B22,2013-04-08 08:16:00,
2013-04-08 04:21:00,56.0,51.2,29.93,SSW,204,0.0,0.0,84,0.00,,,0.00,WeatherCatV1.00B22,2013-04-08 08:21:00,
2013-04-08 04:26:00,56.0,51.2,29.93,SSW,204,0.0,0.0,84,0.00,,,0.00,WeatherCatV1.00B22,2013-04-08 08:26:00,
2013-04-08 04:31:00,56.0,51.2,29.93,SSW,204,0.0,0.0,84,0.00,,,0.00,WeatherCatV1.00B22,2013-04-08 08:31:00,
2013-04-08 04:36:00,56.0,50.9,29.93,SSW,204,0.0,0.0,83,0.00,,,0.00,WeatherCatV1.00B22,2013-04-08 08:36:00,
2013-04-08 04:41:00,56.0,50.9,29.93,SSW,204,0.0,0.0,83,0.00,,,0.00,WeatherCatV1.00B22,2013-04-08 08:41:00,
2013-04-08 04:46:00,56.0,50.9,29.93,SSW,204,0.0,0.0,83,0.00,,,0.00,WeatherCatV1.00B22,2013-04-08 08:46:00,
2013-04-08 04:51:00,56.0,50.9,29.93,SSW,204,0.0,0.0,83,0.00,,,0.00,WeatherCatV1.00B22,2013-04-08 08:51:00,
2013-04-08 04:56:00,56.1,51.0,29.93,SSW,204,0.0,0.0,83,0.00,,,0.00,WeatherCatV1.00B22,2013-04-08 08:56:00,
2013-04-08 05:01:00,56.2,51.1,29.93,SSW,204,0.0,0.0,83,0.00,,,0.00,WeatherCatV1.00B22,2013-04-08 09:01:00,
2013-04-08 05:06:00,56.2,51.1,29.93,SSW,204,0.0,0.0,83,0.00,,,0.00,WeatherCatV1.00B22,2013-04-08 09:06:00,
2013-04-08 05:11:00,56.2,51.1,29.93,SSW,204,0.0,0.0,83,0.00,,,0.00,WeatherCatV1.00B22,2013-04-08 09:11:00,
2013-04-08 05:16:00,56.2,51.1,29.93,SSW,204,0.0,0.0,83,0.00,,,0.00,WeatherCatV1.00B22,2013-04-08 09:16:00,
2013-04-08 05:21:00,56.2,51.1,29.93,SSW,204,0.0,0.0,83,0.00,,,0.00,WeatherCatV1.00B22,2013-04-08 09:21:00,
2013-04-08 05:26:00,56.2,51.4,29.93,SSW,204,0.0,0.0,84,0.00,,,0.00,WeatherCatV1.00B22,2013-04-08 09:26:00,
2013-04-08 05:31:00,56.2,51.4,29.93,SSW,204,0.0,0.0,84,0.00,,,0.00,WeatherCatV1.00B22,2013-04-08 09:31:00,
2013-04-08 05:36:00,56.2,51.1,29.94,SSW,204,0.0,0.0,83,0.00,,,0.00,WeatherCatV1.00B22,2013-04-08 09:36:00,
2013-04-08 05:41:00,56.2,51.4,29.93,SSW,204,0.0,0.0,84,0.00,,,0.00,WeatherCatV1.00B22,2013-04-08 09:41:00,
2013-04-08 05:46:00,56.2,51.7,29.93,SSW,204,0.0,0.0,85,0.00,,,0.00,WeatherCatV1.00B22,2013-04-08 09:46:00,
2013-04-08 05:51:00,56.1,52.0,29.94,SSW,204,0.0,0.0,86,0.00,,,0.00,WeatherCatV1.00B22,2013-04-08 09:51:00,
2013-04-08 05:56:00,56.1,51.7,29.94,SSW,204,0.0,0.0,85,0.00,,,0.00,WeatherCatV1.00B22,2013-04-08 09:56:00,
2013-04-08 06:01:00,56.0,51.6,29.94,SSW,204,0.0,0.0,85,0.00,,,0.00,WeatherCatV1.00B22,2013-04-08 10:01:00,
2013-04-08 06:06:00,55.9,51.1,29.94,SSW,204,0.0,0.0,84,0.00,,,0.00,WeatherCatV1.00B22,2013-04-08 10:06:00,
2013-04-08 06:11:00,55.8,51.0,29.94,SSW,204,0.0,0.0,84,0.00,,,0.00,WeatherCatV1.00B22,2013-04-08 10:11:00,
2013-04-08 06:16:00,55.7,51.3,29.94,SSW,204,0.0,0.0,85,0.00,,,0.00,WeatherCatV1.00B22,2013-04-08 10:16:00,
2013-04-08 06:21:00,55.7,51.3,29.94,SSW,204,0.0,0.0,85,0.00,,,0.00,WeatherCatV1.00B22,2013-04-08 10:21:00,
2013-04-08 06:26:00,55.6,51.2,29.95,SSW,204,0.0,0.0,85,0.00,,,0.00,WeatherCatV1.00B22,2013-04-08 10:26:00,
2013-04-08 06:31:00,55.6,51.2,29.95,SSW,204,0.0,0.0,85,0.00,,,0.00,WeatherCatV1.00B22,2013-04-08 10:31:00,
2013-04-08 06:36:00,55.6,51.2,29.95,SSW,204,0.0,0.0,85,0.00,,,0.00,WeatherCatV1.00B22,2013-04-08 10:36:00,
2013-04-08 06:41:00,55.5,51.1,29.95,SSW,204,0.0,0.0,85,0.00,,,0.00,WeatherCatV1.00B22,2013-04-08 10:41:00,
2013-04-08 06:46:00,55.5,51.1,29.95,SSW,204,0.0,0.0,85,0.00,,,0.00,WeatherCatV1.00B22,2013-04-08 10:46:00,
2013-04-08 06:51:00,55.4,51.6,29.95,SSW,204,0.0,0.0,87,0.00,,,0.00,WeatherCatV1.00B22,2013-04-08 10:51:00,
2013-04-08 06:56:00,55.4,51.6,29.95,SSW,204,0.0,0.0,87,0.00,,,0.00,WeatherCatV1.00B22,2013-04-08 10:56:00,
2013-04-08 07:01:00,55.3,51.5,29.96,SSW,204,0.0,0.0,87,0.00,,,0.00,WeatherCatV1.00B22,2013-04-08 11:01:00,
2013-04-08 07:06:00,55.3,51.5,29.96,SSW,204,0.0,0.0,87,0.00,,,0.00,WeatherCatV1.00B22,2013-04-08 11:06:00,
2013-04-08 07:11:00,55.2,51.4,29.96,SSW,204,0.0,0.0,87,0.00,,,0.00,WeatherCatV1.00B22,2013-04-08 11:11:00,
2013-04-08 07:16:00,55.1,51.3,29.96,SSW,204,0.0,0.0,87,0.00,,,0.00,WeatherCatV1.00B22,2013-04-08 11:16:00,
2013-04-08 07:21:00,55.0,51.2,29.97,SSW,204,0.0,0.0,87,0.00,,,0.00,WeatherCatV1.00B22,2013-04-08 11:21:00,
2013-04-08 07:26:00,54.9,51.1,29.97,SSW,204,0.0,0.0,87,0.00,,,0.00,WeatherCatV1.00B22,2013-04-08 11:26:00,
2013-04-08 07:31:00,54.8,51.0,29.97,SSW,204,0.0,0.0,87,0.00,,,0.00,WeatherCatV1.00B22,2013-04-08 11:31:00,
2013-04-08 07:36:00,54.8,51.0,29.98,SSW,204,0.0,0.0,87,0.00,,,0.00,WeatherCatV1.00B22,2013-04-08 11:36:00,
2013-04-08 07:41:00,54.8,51.0,29.98,SSW,204,0.0,0.0,87,0.00,,,0.00,WeatherCatV1.00B22,2013-04-08 11:41:00,
2013-04-08 07:46:00,54.8,51.3,29.98,SSW,204,0.0,0.0,88,0.00,,,0.00,WeatherCatV1.00B22,2013-04-08 11:46:00,
2013-04-08 07:51:00,54.8,51.0,29.99,SSW,204,1.0,2.0,87,0.00,,,0.00,WeatherCatV1.00B22,2013-04-08 11:51:00,
2013-04-08 07:56:00,54.9,51.1,29.99,ENE,69,1.0,2.0,87,0.00,,,0.00,WeatherCatV1.00B22,2013-04-08 11:56:00,
2013-04-08 08:01:00,55.0,50.9,29.99,ENE,58,2.0,3.0,86,0.00,,,0.00,WeatherCatV1.00B22,2013-04-08 12:01:00,
2013-04-08 08:06:00,55.1,51.0,29.99,NE,56,2.0,3.0,86,0.00,,,0.00,WeatherCatV1.00B22,2013-04-08 12:06:00,
2013-04-08 08:11:00,55.3,51.2,29.99,NE,41,2.0,3.0,86,0.00,,,0.00,WeatherCatV1.00B22,2013-04-08 12:11:00,
2013-04-08 08:16:00,55.5,51.4,29.99,NE,45,2.0,3.0,86,0.00,,,0.00,WeatherCatV1.00B22,2013-04-08 12:16:00,
2013-04-08 08:21:00,55.6,51.2,29.99,NE,44,2.0,3.0,85,0.00,,,0.00,WeatherCatV1.00B22,2013-04-08 12:21:00,
2013-04-08 08:26:00,55.8,51.4,29.99,NE,36,2.0,4.0,85,0.00,,,0.00,WeatherCatV1.00B22,2013-04-08 12:26:00,
2013-04-08 08:31:00,56.0,51.6,29.99,NE,36,1.0,3.0,85,0.00,,,0.00,WeatherCatV1.00B22,2013-04-08 12:31:00,
2013-04-08 08:36:00,56.2,51.4,29.99,NE,36,2.0,2.0,84,0.00,,,0.00,WeatherCatV1.00B22,2013-04-08 12:36:00,
2013-04-08 08:41:00,56.3,51.5,29.99,NE,36,0.0,0.0,84,0.00,,,0.00,WeatherCatV1.00B22,2013-04-08 12:41:00,
2013-04-08 08:46:00,56.5,51.7,30.00,NE,36,0.0,0.0,84,0.00,,,0.00,WeatherCatV1.00B22,2013-04-08 12:46:00,
2013-04-08 08:51:00,56.7,51.9,29.99,NE,38,0.0,0.0,84,0.00,,,0.00,WeatherCatV1.00B22,2013-04-08 12:51:00,
2013-04-08 08:56:00,56.8,52.0,29.99,ENE,74,1.0,2.0,84,0.00,,,0.00,WeatherCatV1.00B22,2013-04-08 12:56:00,
2013-04-08 09:01:00,57.1,52.6,29.99,ENE,74,1.0,1.0,85,0.00,,,0.00,WeatherCatV1.00B22,2013-04-08 13:01:00,
2013-04-08 09:06:00,57.4,52.3,29.99,NE,56,1.0,1.0,83,0.00,,,0.00,WeatherCatV1.00B22,2013-04-08 13:06:00,
2013-04-08 09:11:00,57.8,52.7,29.99,NE,56,0.0,1.0,83,0.00,,,0.00,WeatherCatV1.00B22,2013-04-08 13:11:00,
2013-04-08 09:16:00,58.1,53.0,29.99,NE,56,1.0,2.0,83,0.00,,,0.00,WeatherCatV1.00B22,2013-04-08 13:16:00,
2013-04-08 09:21:00,58.6,53.1,30.00,NE,56,0.0,1.0,82,0.00,,,0.00,WeatherCatV1.00B22,2013-04-08 13:21:00,
2013-04-08 09:26:00,59.0,53.2,30.00,ESE,123,1.0,2.0,81,0.00,,,0.00,WeatherCatV1.00B22,2013-04-08 13:26:00,
2013-04-08 09:31:00,59.6,53.8,30.00,South,173,0.0,0.0,81,0.00,,,0.00,WeatherCatV1.00B22,2013-04-08 13:31:00,
2013-04-08 09:36:00,60.3,54.4,30.00,South,176,2.0,2.0,81,0.00,,,0.00,WeatherCatV1.00B22,2013-04-08 13:36:00,
2013-04-08 09:41:00,60.9,54.7,30.00,South,188,0.0,1.0,80,0.00,,,0.00,WeatherCatV1.00B22,2013-04-08 13:41:00,
2013-04-08 09:46:00,61.5,55.6,30.00,South,188,0.0,1.0,81,0.00,,,0.00,WeatherCatV1.00B22,2013-04-08 13:46:00,
2013-04-08 09:51:00,62.3,56.0,30.00,SW,235,0.0,0.0,80,0.00,,,0.00,WeatherCatV1.00B22,2013-04-08 13:51:00,
2013-04-08 09:56:00,63.0,56.0,30.00,WSW,239,1.0,1.0,78,0.00,,,0.00,WeatherCatV1.00B22,2013-04-08 13:56:00,
2013-04-08 10:01:00,63.6,56.3,30.00,SW,223,1.0,3.0,77,0.00,,,0.00,WeatherCatV1.00B22,2013-04-08 14:01:00,
2013-04-08 10:06:00,64.1,56.4,30.00,NW,315,1.0,2.0,76,0.00,,,0.00,WeatherCatV1.00B22,2013-04-08 14:06:00,
2013-04-08 10:11:00,64.6,56.5,30.00,SW,217,0.0,0.0,75,0.00,,,0.00,WeatherCatV1.00B22,2013-04-08 14:11:00,
2013-04-08 10:16:00,65.0,56.9,30.00,SSE,149,1.0,2.0,75,0.00,,,0.00,WeatherCatV1.00B22,2013-04-08 14:16:00,
2013-04-08 10:21:00,65.5,57.4,30.00,SSE,167,0.0,3.0,75,0.00,,,0.00,WeatherCatV1.00B22,2013-04-08 14:21:00,
2013-04-08 10:26:00,66.2,57.7,30.00,SSE,159,0.0,1.0,74,0.00,,,0.00,WeatherCatV1.00B22,2013-04-08 14:26:00,
2013-04-08 10:31:00,66.7,57.4,30.00,South,186,1.0,2.0,72,0.00,,,0.00,WeatherCatV1.00B22,2013-04-08 14:31:00,
2013-04-08 10:36:00,67.3,57.6,30.00,WSW,246,1.0,1.0,71,0.00,,,0.00,WeatherCatV1.00B22,2013-04-08 14:36:00,
2013-04-08 10:41:00,67.7,57.6,30.00,West,268,2.0,4.0,70,0.00,,,0.00,WeatherCatV1.00B22,2013-04-08 14:41:00,
2013-04-08 10:46:00,67.9,57.3,30.00,West,275,3.0,4.0,69,0.00,,,0.00,WeatherCatV1.00B22,2013-04-08 14:46:00,
2013-04-08 10:51:00,68.0,57.4,30.01,West,265,0.0,3.0,69,0.00,,,0.00,WeatherCatV1.00B22,2013-04-08 14:51:00,
2013-04-08 10:56:00,67.9,57.3,30.01,WSW,253,0.0,4.0,69,0.00,,,0.00,WeatherCatV1.00B22,2013-04-08 14:56:00,
2013-04-08 11:01:00,68.2,57.6,30.01,West,268,3.0,3.0,69,0.00,,,0.00,WeatherCatV1.00B22,2013-04-08 15:01:00,
2013-04-08 11:06:00,68.4,57.8,30.00,WNW,288,1.0,3.0,69,0.00,,,0.00,WeatherCatV1.00B22,2013-04-08 15:06:00,
2013-04-08 11:11:00,68.7,57.7,30.00,SW,232,0.0,3.0,68,0.00,,,0.00,WeatherCatV1.00B22,2013-04-08 15:11:00,
2013-04-08 11:16:00,69.0,58.0,30.00,SSE,157,3.0,3.0,68,0.00,,,0.00,WeatherCatV1.00B22,2013-04-08 15:16:00,
2013-04-08 11:21:00,69.2,58.2,30.00,West,273,1.0,2.0,68,0.00,,,0.00,WeatherCatV1.00B22,2013-04-08 15:21:00,
2013-04-08 11:26:00,69.4,58.0,30.00,West,275,1.0,2.0,67,0.00,,,0.00,WeatherCatV1.00B22,2013-04-08 15:26:00,
2013-04-08 11:31:00,69.5,57.6,30.00,West,264,1.0,2.0,66,0.00,,,0.00,WeatherCatV1.00B22,2013-04-08 15:31:00,
2013-04-08 11:36:00,69.7,58.2,30.00,SSW,208,2.0,3.0,67,0.00,,,0.00,WeatherCatV1.00B22,2013-04-08 15:36:00,
2013-04-08 11:41:00,69.9,58.0,30.00,SW,223,1.0,4.0,66,0.00,,,0.00,WeatherCatV1.00B22,2013-04-08 15:41:00,
2013-04-08 11:46:00,70.4,58.5,30.00,West,259,0.0,3.0,66,0.00,,,0.00,WeatherCatV1.00B22,2013-04-08 15:46:00,
2013-04-08 11:51:00,70.7,57.5,30.00,WSW,257,4.0,4.0,63,0.00,,,0.00,WeatherCatV1.00B22,2013-04-08 15:51:00,
2013-04-08 11:56:00,70.9,58.1,30.00,WSW,244,1.0,4.0,64,0.00,,,0.00,WeatherCatV1.00B22,2013-04-08 15:56:00,
2013-04-08 12:01:00,70.9,58.1,30.00,WSW,241,0.0,1.0,64,0.00,,,0.00,WeatherCatV1.00B22,2013-04-08 16:01:00,
2013-04-08 12:06:00,71.2,57.5,30.00,WNW,288,2.0,3.0,62,0.00,,,0.00,WeatherCatV1.00B22,2013-04-08 16:06:00,
2013-04-08 12:11:00,71.2,57.0,30.00,West,263,0.0,2.0,61,0.00,,,0.00,WeatherCatV1.00B22,2013-04-08 16:11:00,
2013-04-08 12:16:00,71.5,57.3,30.00,SSW,204,1.0,2.0,61,0.00,,,0.00,WeatherCatV1.00B22,2013-04-08 16:16:00,
2013-04-08 12:21:00,71.9,56.8,30.00,WSW,249,2.0,3.0,59,0.00,,,0.00,WeatherCatV1.00B22,2013-04-08 16:21:00,
2013-04-08 12:26:00,72.1,57.9,30.00,West,275,2.0,3.0,61,0.00,,,0.00,WeatherCatV1.00B22,2013-04-08 16:26:00,
2013-04-08 12:31:00,72.4,57.2,30.00,WNW,295,1.0,5.0,59,0.00,,,0.00,WeatherCatV1.00B22,2013-04-08 16:31:00,
2013-04-08 12:36:00,72.5,56.4,29.99,West,260,1.0,4.0,57,0.00,,,0.00,WeatherCatV1.00B22,2013-04-08 16:36:00,
2013-04-08 12:41:00,72.6,57.0,29.99,SW,225,2.0,5.0,58,0.00,,,0.00,WeatherCatV1.00B22,2013-04-08 16:41:00,
2013-04-08 12:46:00,73.1,56.5,29.99,SW,235,1.0,5.0,56,0.00,,,0.00,WeatherCatV1.00B22,2013-04-08 16:46:00,
2013-04-08 12:51:00,73.3,56.6,29.99,WNW,285,4.0,4.0,56,0.00,,,0.00,WeatherCatV1.00B22,2013-04-08 16:51:00,
2013-04-08 12:56:00,73.4,56.7,29.98,West,268,1.0,3.0,56,0.00,,,0.00,WeatherCatV1.00B22,2013-04-08 16:56:00,
2013-04-08 13:01:00,73.4,55.2,29.98,SW,232,3.0,7.0,53,0.00,,,0.00,WeatherCatV1.00B22,2013-04-08 17:01:00,
2013-04-08 13:06:00,72.9,55.8,29.98,SW,229,3.0,6.0,55,0.00,,,0.00,WeatherCatV1.00B22,2013-04-08 17:06:00,
2013-04-08 13:11:00,73.5,55.8,29.98,West,266,5.0,5.0,54,0.00,,,0.00,WeatherCatV1.00B22,2013-04-08 17:11:00,
2013-04-08 13:16:00,73.7,56.0,29.98,West,261,2.0,2.0,54,0.00,,,0.00,WeatherCatV1.00B22,2013-04-08 17:16:00,
2013-04-08 13:21:00,73.7,56.5,29.98,SW,234,3.0,3.0,55,0.00,,,0.00,WeatherCatV1.00B22,2013-04-08 17:21:00,
2013-04-08 13:26:00,74.2,55.4,29.98,WSW,243,0.0,4.0,52,0.00,,,0.00,WeatherCatV1.00B22,2013-04-08 17:26:00,
2013-04-08 13:31:00,74.3,56.0,29.98,SW,234,1.0,3.0,53,0.00,,,0.00,WeatherCatV1.00B22,2013-04-08 17:31:00,
2013-04-08 13:36:00,74.5,55.7,29.98,WNW,285,3.0,3.0,52,0.00,,,0.00,WeatherCatV1.00B22,2013-04-08 17:36:00,
2013-04-08 13:41:00,74.4,55.6,29.98,WSW,242,0.0,2.0,52,0.00,,,0.00,WeatherCatV1.00B22,2013-04-08 17:41:00,
2013-04-08 13:46:00,74.9,56.6,29.97,West,262,1.0,5.0,53,0.00,,,0.00,WeatherCatV1.00B22,2013-04-08 17:46:00,
2013-04-08 13:51:00,75.6,55.6,29.97,South,178,1.0,4.0,50,0.00,,,0.00,WeatherCatV1.00B22,2013-04-08 17:51:00,
2013-04-08 13:56:00,75.9,54.8,29.96,SW,227,1.0,3.0,48,0.00,,,0.00,WeatherCatV1.00B22,2013-04-08 17:56:00,
2013-04-08 14:01:00,76.4,56.4,29.96,ENE,73,2.0,4.0,50,0.00,,,0.00,WeatherCatV1.00B22,2013-04-08 18:01:00,
2013-04-08 14:06:00,76.1,54.4,29.96,SSW,209,2.0,2.0,47,0.00,,,0.00,WeatherCatV1.00B22,2013-04-08 18:06:00,
2013-04-08 14:11:00,75.4,54.3,29.96,SSW,204,3.0,4.0,48,0.00,,,0.00,WeatherCatV1.00B22,2013-04-08 18:11:00,
2013-04-08 14:16:00,75.1,56.3,29.96,West,279,2.0,2.0,52,0.00,,,0.00,WeatherCatV1.00B22,2013-04-08 18:16:00,
2013-04-08 14:21:00,75.6,55.6,29.95,WSW,241,0.0,4.0,50,0.00,,,0.00,WeatherCatV1.00B22,2013-04-08 18:21:00,
2013-04-08 14:26:00,76.0,56.0,29.95,West,277,3.0,6.0,50,0.00,,,0.00,WeatherCatV1.00B22,2013-04-08 18:26:00,
2013-04-08 14:31:00,76.2,55.1,29.95,WSW,254,1.0,4.0,48,0.00,,,0.00,WeatherCatV1.00B22,2013-04-08 18:31:00,
2013-04-08 14:36:00,76.6,55.4,29.95,SW,236,1.0,5.0,48,0.00,,,0.00,WeatherCatV1.00B22,2013-04-08 18:36:00,
2013-04-08 14:41:00,76.7,56.1,29.94,WSW,248,0.0,5.0,49,0.00,,,0.00,WeatherCatV1.00B22,2013-04-08 18:41:00,
2013-04-08 14:46:00,76.7,56.6,29.94,ENE,73,2.0,2.0,50,0.00,,,0.00,WeatherCatV1.00B22,2013-04-08 18:46:00,
2013-04-08 14:51:00,76.9,56.3,29.94,SSW,209,1.0,2.0,49,0.00,,,0.00,WeatherCatV1.00B22,2013-04-08 18:51:00,
2013-04-08 14:56:00,76.9,55.7,29.94,WNW,299,1.0,4.0,48,0.00,,,0.00,WeatherCatV1.00B22,2013-04-08 18:56:00,
2013-04-08 15:01:00,77.0,55.2,29.94,SSW,212,1.0,5.0,47,0.00,,,0.00,WeatherCatV1.00B22,2013-04-08 19:01:00,
2013-04-08 15:06:00,77.1,54.7,29.94,SW,229,2.0,3.0,46,0.00,,,0.00,WeatherCatV1.00B22,2013-04-08 19:06:00,
2013-04-08 15:11:00,77.2,54.8,29.94,WSW,240,1.0,6.0,46,0.00,,,0.00,WeatherCatV1.00B22,2013-04-08 19:11:00,
2013-04-08 15:16:00,77.1,55.9,29.94,WSW,249,4.0,4.0,48,0.00,,,0.00,WeatherCatV1.00B22,2013-04-08 19:16:00,
2013-04-08 15:21:00,76.9,55.1,29.94,SW,223,1.0,3.0,47,0.00,,,0.00,WeatherCatV1.00B22,2013-04-08 19:21:00,
2013-04-08 15:26:00,76.7,54.9,29.93,WSW,252,3.0,3.0,47,0.00,,,0.00,WeatherCatV1.00B22,2013-04-08 19:26:00,
2013-04-08 15:31:00,76.6,54.2,29.93,ESE,119,2.0,6.0,46,0.00,,,0.00,WeatherCatV1.00B22,2013-04-08 19:31:00,
2013-04-08 15:36:00,76.8,55.0,29.93,SW,225,3.0,3.0,47,0.00,,,0.00,WeatherCatV1.00B22,2013-04-08 19:36:00,
2013-04-08 15:41:00,76.9,55.7,29.93,West,265,3.0,4.0,48,0.00,,,0.00,WeatherCatV1.00B22,2013-04-08 19:41:00,
2013-04-08 15:46:00,77.0,55.2,29.93,WSW,252,0.0,5.0,47,0.00,,,0.00,WeatherCatV1.00B22,2013-04-08 19:46:00,
2013-04-08 15:51:00,76.9,54.5,29.92,SSW,203,0.0,5.0,46,0.00,,,0.00,WeatherCatV1.00B22,2013-04-08 19:51:00,
2013-04-08 15:56:00,77.0,55.2,29.92,SW,219,3.0,4.0,47,0.00,,,0.00,WeatherCatV1.00B22,2013-04-08 19:56:00,
2013-04-08 16:01:00,76.9,55.1,29.92,SW,236,3.0,4.0,47,0.00,,,0.00,WeatherCatV1.00B22,2013-04-08 20:01:00,
2013-04-08 16:06:00,76.7,54.3,29.92,WSW,239,1.0,3.0,46,0.00,,,0.00,WeatherCatV1.00B22,2013-04-08 20:06:00,
2013-04-08 16:11:00,76.8,53.8,29.92,West,265,3.0,3.0,45,0.00,,,0.00,WeatherCatV1.00B22,2013-04-08 20:11:00,
2013-04-08 16:16:00,76.5,54.7,29.92,WSW,256,1.0,4.0,47,0.00,,,0.00,WeatherCatV1.00B22,2013-04-08 20:16:00,
2013-04-08 16:21:00,76.6,53.6,29.91,SSW,212,1.0,2.0,45,0.00,,,0.00,WeatherCatV1.00B22,2013-04-08 20:21:00,
2013-04-08 16:27:00,77.0,54.0,29.91,SW,221,4.0,4.0,45,0.00,,,0.00,WeatherCatV1.00B22,2013-04-08 20:27:00,
2013-04-08 16:32:00,77.2,54.8,29.91,West,263,3.0,4.0,46,0.00,,,0.00,WeatherCatV1.00B22,2013-04-08 20:32:00,
2013-04-08 16:37:00,77.4,53.8,29.91,WNW,286,2.0,3.0,44,0.00,,,0.00,WeatherCatV1.00B22,2013-04-08 20:37:00,
2013-04-08 16:42:00,77.3,54.3,29.91,WNW,284,1.0,1.0,45,0.00,,,0.00,WeatherCatV1.00B22,2013-04-08 20:42:00,
2013-04-08 16:47:00,77.0,55.2,29.91,SE,144,4.0,4.0,47,0.00,,,0.00,WeatherCatV1.00B22,2013-04-08 20:47:00,
2013-04-08 16:52:00,76.9,53.9,29.91,SW,233,2.0,3.0,45,0.00,,,0.00,WeatherCatV1.00B22,2013-04-08 20:52:00,
2013-04-08 16:57:00,76.7,54.3,29.91,SSW,198,0.0,1.0,46,0.00,,,0.00,WeatherCatV1.00B22,2013-04-08 20:57:00,
2013-04-08 17:02:00,76.5,54.2,29.91,WSW,250,3.0,4.0,46,0.00,,,0.00,WeatherCatV1.00B22,2013-04-08 21:02:00,
2013-04-08 17:07:00,76.4,54.1,29.91,NW,317,1.0,2.0,46,0.00,,,0.00,WeatherCatV1.00B22,2013-04-08 21:07:00,
2013-04-08 17:12:00,76.3,54.6,29.91,SW,224,2.0,3.0,47,0.00,,,0.00,WeatherCatV1.00B22,2013-04-08 21:12:00,
2013-04-08 17:17:00,76.2,54.5,29.91,SW,225,1.0,3.0,47,0.00,,,0.00,WeatherCatV1.00B22,2013-04-08 21:17:00,
2013-04-08 17:22:00,76.1,55.0,29.91,NNE,20,1.0,2.0,48,0.00,,,0.00,WeatherCatV1.00B22,2013-04-08 21:22:00,
2013-04-08 17:27:00,76.1,54.4,29.91,SE,138,0.0,2.0,47,0.00,,,0.00,WeatherCatV1.00B22,2013-04-08 21:27:00,
2013-04-08 17:32:00,76.1,54.4,29.91,WNW,284,0.0,1.0,47,0.00,,,0.00,WeatherCatV1.00B22,2013-04-08 21:32:00,
2013-04-08 17:37:00,76.0,54.3,29.91,SW,220,0.0,3.0,47,0.00,,,0.00,WeatherCatV1.00B22,2013-04-08 21:37:00,
2013-04-08 17:42:00,75.9,54.2,29.91,West,273,0.0,2.0,47,0.00,,,0.00,WeatherCatV1.00B22,2013-04-08 21:42:00,
2013-04-08 17:47:00,75.8,55.3,29.91,WSW,257,1.0,2.0,49,0.00,,,0.00,WeatherCatV1.00B22,2013-04-08 21:47:00,
2013-04-08 17:52:00,75.8,54.7,29.91,NNW,327,2.0,2.0,48,0.00,,,0.00,WeatherCatV1.00B22,2013-04-08 21:52:00,
2013-04-08 17:57:00,75.8,55.3,29.91,NW,304,1.0,2.0,49,0.00,,,0.00,WeatherCatV1.00B22,2013-04-08 21:57:00,
2013-04-08 18:02:00,75.7,55.2,29.91,SW,219,1.0,2.0,49,0.00,,,0.00,WeatherCatV1.00B22,2013-04-08 22:02:00,
2013-04-08 18:07:00,75.7,54.6,29.91,SSW,200,1.0,2.0,48,0.00,,,0.00,WeatherCatV1.00B22,2013-04-08 22:07:00,
2013-04-08 18:12:00,75.6,54.5,29.91,WSW,254,0.0,2.0,48,0.00,,,0.00,WeatherCatV1.00B22,2013-04-08 22:12:00,
2013-04-08 18:17:00,75.5,54.4,29.91,WSW,254,0.0,1.0,48,0.00,,,0.00,WeatherCatV1.00B22,2013-04-08 22:17:00,
2013-04-08 18:22:00,75.4,55.4,29.91,WSW,254,0.0,1.0,50,0.00,,,0.00,WeatherCatV1.00B22,2013-04-08 22:22:00,
2013-04-08 18:27:00,75.3,55.4,29.91,WSW,254,0.0,0.0,50,0.00,,,0.00,WeatherCatV1.00B22,2013-04-08 22:27:00,
2013-04-08 18:32:00,75.2,54.7,29.91,WSW,254,0.0,1.0,49,0.00,,,0.00,WeatherCatV1.00B22,2013-04-08 22:32:00,
2013-04-08 18:37:00,75.1,55.2,29.91,WSW,254,0.0,1.0,50,0.00,,,0.00,WeatherCatV1.00B22,2013-04-08 22:37:00,
2013-04-08 18:42:00,75.0,54.5,29.91,West,261,0.0,3.0,49,0.00,,,0.00,WeatherCatV1.00B22,2013-04-08 22:42:00,
2013-04-08 18:47:00,74.9,55.5,29.91,South,171,0.0,1.0,51,0.00,,,0.00,WeatherCatV1.00B22,2013-04-08 22:47:00,
2013-04-08 18:52:00,74.7,55.9,29.91,South,172,0.0,1.0,52,0.00,,,0.00,WeatherCatV1.00B22,2013-04-08 22:52:00,
2013-04-08 18:57:00,74.6,55.8,29.91,South,172,0.0,0.0,52,0.00,,,0.00,WeatherCatV1.00B22,2013-04-08 22:57:00,
2013-04-08 19:02:00,74.4,55.1,29.91,South,172,0.0,0.0,51,0.00,,,0.00,WeatherCatV1.00B22,2013-04-08 23:02:00,
2013-04-08 19:07:00,74.2,54.9,29.91,South,172,0.0,0.0,51,0.00,,,0.00,WeatherCatV1.00B22,2013-04-08 23:07:00,
2013-04-08 19:12:00,74.1,55.3,29.91,South,172,0.0,0.0,52,0.00,,,0.00,WeatherCatV1.00B22,2013-04-08 23:12:00,
2013-04-08 19:17:00,73.9,54.6,29.91,South,172,0.0,0.0,51,0.00,,,0.00,WeatherCatV1.00B22,2013-04-08 23:17:00,
2013-04-08 19:22:00,73.8,55.1,29.91,South,172,0.0,0.0,52,0.00,,,0.00,WeatherCatV1.00B22,2013-04-08 23:22:00,
2013-04-08 19:27:00,73.6,54.3,29.91,South,172,0.0,0.0,51,0.00,,,0.00,WeatherCatV1.00B22,2013-04-08 23:27:00,
2013-04-08 19:32:00,73.5,54.8,29.91,South,172,0.0,0.0,52,0.00,,,0.00,WeatherCatV1.00B22,2013-04-08 23:32:00,
2013-04-08 19:37:00,73.3,55.1,29.91,South,172,0.0,0.0,53,0.00,,,0.00,WeatherCatV1.00B22,2013-04-08 23:37:00,
2013-04-08 19:42:00,73.1,54.9,29.90,South,172,0.0,0.0,53,0.00,,,0.00,WeatherCatV1.00B22,2013-04-08 23:42:00,
2013-04-08 19:47:00,72.9,54.8,29.91,South,172,0.0,0.0,53,0.00,,,0.00,WeatherCatV1.00B22,2013-04-08 23:47:00,
2013-04-08 19:52:00,72.4,57.7,29.91,South,172,0.0,0.0,60,0.00,,,0.00,WeatherCatV1.00B22,2013-04-08 23:52:00,
2013-04-08 19:57:00,71.9,55.8,29.91,South,172,0.0,0.0,57,0.00,,,0.00,WeatherCatV1.00B22,2013-04-08 23:57:00,
2013-04-08 20:02:00,71.5,55.0,29.91,South,172,0.0,0.0,56,0.00,,,0.00,WeatherCatV1.00B22,2013-04-09 00:02:00,
2013-04-08 20:07:00,71.2,55.2,29.91,South,172,0.0,0.0,57,0.00,,,0.00,WeatherCatV1.00B22,2013-04-09 00:07:00,
2013-04-08 20:12:00,70.9,54.9,29.91,South,172,0.0,0.0,57,0.00,,,0.00,WeatherCatV1.00B22,2013-04-09 00:12:00,
2013-04-08 20:17:00,70.7,54.7,29.92,South,172,0.0,0.0,57,0.00,,,0.00,WeatherCatV1.00B22,2013-04-09 00:17:00,
2013-04-08 20:22:00,70.4,54.9,29.92,South,172,0.0,0.0,58,0.00,,,0.00,WeatherCatV1.00B22,2013-04-09 00:22:00,
2013-04-08 20:27:00,70.1,54.6,29.92,South,172,0.0,0.0,58,0.00,,,0.00,WeatherCatV1.00B22,2013-04-09 00:27:00,
2013-04-08 20:32:00,69.9,54.9,29.92,South,172,0.0,0.0,59,0.00,,,0.00,WeatherCatV1.00B22,2013-04-09 00:32:00,
2013-04-08 20:37:00,69.6,54.6,29.92,South,172,0.0,0.0,59,0.00,,,0.00,WeatherCatV1.00B22,2013-04-09 00:37:00,
2013-04-08 20:46:00,69.1,54.6,29.92,South,172,0.0,0.0,60,0.00,,,0.00,WeatherCatV1.00B22,2013-04-09 00:46:00,
2013-04-08 20:51:00,68.9,54.4,29.92,South,172,0.0,0.0,60,0.00,,,0.00,WeatherCatV1.00B22,2013-04-09 00:51:00,
2013-04-08 20:56:00,68.6,54.1,29.92,South,172,0.0,0.0,60,0.00,,,0.00,WeatherCatV1.00B22,2013-04-09 00:56:00,
2013-04-08 21:01:00,68.4,54.4,29.92,South,172,0.0,0.0,61,0.00,,,0.00,WeatherCatV1.00B22,2013-04-09 01:01:00,
2013-04-08 21:06:00,68.2,54.7,29.92,South,172,0.0,0.0,62,0.00,,,0.00,WeatherCatV1.00B22,2013-04-09 01:06:00,
2013-04-08 21:11:00,67.9,54.4,29.92,South,172,0.0,0.0,62,0.00,,,0.00,WeatherCatV1.00B22,2013-04-09 01:11:00,
2013-04-08 21:16:00,67.6,54.5,29.92,South,172,0.0,0.0,63,0.00,,,0.00,WeatherCatV1.00B22,2013-04-09 01:16:00,
2013-04-08 21:21:00,67.4,54.4,29.93,South,172,0.0,0.0,63,0.00,,,0.00,WeatherCatV1.00B22,2013-04-09 01:21:00,
2013-04-08 21:26:00,67.1,54.1,29.93,South,172,0.0,0.0,63,0.00,,,0.00,WeatherCatV1.00B22,2013-04-09 01:26:00,
2013-04-08 21:31:00,66.8,54.6,29.93,South,172,0.0,0.0,65,0.00,,,0.00,WeatherCatV1.00B22,2013-04-09 01:31:00,
2013-04-08 21:36:00,66.5,54.4,29.93,South,172,0.0,0.0,65,0.00,,,0.00,WeatherCatV1.00B22,2013-04-09 01:36:00,
2013-04-08 21:41:00,66.3,54.6,29.93,South,172,0.0,0.0,66,0.00,,,0.00,WeatherCatV1.00B22,2013-04-09 01:41:00,
2013-04-08 21:46:00,66.0,54.7,29.93,South,172,0.0,0.0,67,0.00,,,0.00,WeatherCatV1.00B22,2013-04-09 01:46:00,
2013-04-08 21:51:00,65.8,54.5,29.93,South,172,0.0,0.0,67,0.00,,,0.00,WeatherCatV1.00B22,2013-04-09 01:51:00,
2013-04-08 21:56:00,65.5,54.2,29.93,South,172,0.0,0.0,67,0.00,,,0.00,WeatherCatV1.00B22,2013-04-09 01:56:00,
2013-04-08 22:01:00,65.3,54.5,29.93,South,172,0.0,0.0,68,0.00,,,0.00,WeatherCatV1.00B22,2013-04-09 02:01:00,
2013-04-08 22:06:00,65.0,54.6,29.93,South,172,0.0,0.0,69,0.00,,,0.00,WeatherCatV1.00B22,2013-04-09 02:06:00,
2013-04-08 22:11:00,64.7,54.3,29.94,South,172,0.0,0.0,69,0.00,,,0.00,WeatherCatV1.00B22,2013-04-09 02:11:00,
2013-04-08 22:16:00,64.5,54.5,29.94,South,172,0.0,0.0,70,0.00,,,0.00,WeatherCatV1.00B22,2013-04-09 02:16:00,
2013-04-08 22:21:00,64.3,54.3,29.94,South,172,0.0,0.0,70,0.00,,,0.00,WeatherCatV1.00B22,2013-04-09 02:21:00,
2013-04-08 22:26:00,64.1,54.5,29.94,South,172,0.0,0.0,71,0.00,,,0.00,WeatherCatV1.00B22,2013-04-09 02:26:00,
2013-04-08 22:31:00,63.9,54.3,29.94,South,172,0.0,0.0,71,0.00,,,0.00,WeatherCatV1.00B22,2013-04-09 02:31:00,
2013-04-08 22:36:00,63.8,54.6,29.94,South,172,0.0,0.0,72,0.00,,,0.00,WeatherCatV1.00B22,2013-04-09 02:36:00,
2013-04-08 22:41:00,63.6,54.4,29.95,South,172,0.0,0.0,72,0.00,,,0.00,WeatherCatV1.00B22,2013-04-09 02:41:00,
2013-04-08 22:46:00,63.5,54.3,29.95,South,172,0.0,0.0,72,0.00,,,0.00,WeatherCatV1.00B22,2013-04-09 02:46:00,
2013-04-08 22:51:00,63.3,54.5,29.95,South,172,0.0,0.0,73,0.00,,,0.00,WeatherCatV1.00B22,2013-04-09 02:51:00,
2013-04-08 22:56:00,63.1,54.3,29.95,South,172,0.0,0.0,73,0.00,,,0.00,WeatherCatV1.00B22,2013-04-09 02:56:00,
2013-04-08 23:01:00,63.0,54.6,29.95,South,172,0.0,0.0,74,0.00,,,0.00,WeatherCatV1.00B22,2013-04-09 03:01:00,
2013-04-08 23:06:00,62.8,54.4,29.95,South,172,0.0,0.0,74,0.00,,,0.00,WeatherCatV1.00B22,2013-04-09 03:06:00,
2013-04-08 23:11:00,62.7,54.3,29.95,South,172,0.0,0.0,74,0.00,,,0.00,WeatherCatV1.00B22,2013-04-09 03:11:00,
2013-04-08 23:16:00,62.6,54.2,29.95,South,172,0.0,0.0,74,0.00,,,0.00,WeatherCatV1.00B22,2013-04-09 03:16:00,
2013-04-08 23:21:00,62.4,54.4,29.95,South,172,0.0,0.0,75,0.00,,,0.00,WeatherCatV1.00B22,2013-04-09 03:21:00,
2013-04-08 23:26:00,62.2,54.2,29.95,South,172,0.0,0.0,75,0.00,,,0.00,WeatherCatV1.00B22,2013-04-09 03:26:00,
2013-04-08 23:33:00,61.9,54.2,29.95,South,172,0.0,0.0,76,0.00,,,0.00,WeatherCatV1.00B22,2013-04-09 03:33:00,
2013-04-08 23:38:00,61.8,54.2,29.95,South,172,0.0,0.0,76,0.00,,,0.00,WeatherCatV1.00B22,2013-04-09 03:38:00,
2013-04-08 23:45:00,61.6,54.3,29.95,South,172,0.0,0.0,77,0.00,,,0.00,WeatherCatV1.00B22,2013-04-09 03:45:00,
2013-04-08 23:50:00,61.5,54.2,29.95,South,172,0.0,0.0,77,0.00,,,0.00,WeatherCatV1.00B22,2013-04-09 03:50:00,
2013-04-08 23:55:00,61.3,54.4,29.95,South,172,0.0,0.0,78,0.00,,,0.00,WeatherCatV1.00B22,2013-04-09 03:55:00,